Regional Weather Roundup
Issued by NWS Austin/San Antonio, TX

Home | Current Version | Previous Version | Text Only | Print | Product List | Glossary On
Versions: 1 2 3 4 5 6 7 8 9 10 11 12 13 14 15 16 17 18 19 20 21 22 23 24 25 26 27 28 29 30 31 32 33 34 35 36 37 38 39 40 41 42 43 44 45 46 47 48 49 50
000
ASUS44 KEWX 200101
RWREWX
SOUTH TEXAS REGIONAL WEATHER ROUNDUP
NATIONAL WEATHER SERVICE AUSTIN/SAN ANTONIO TX
700 PM CST SUN NOV 19 2017

NOTE: "FAIR" INDICATED FEW OR NO CLOUDS BELOW 12,000 FEET WITH NO
SIGNIFICANT WEATHER AND/OR OBSTRUCTIONS TO VISIBILITY.

* - THESE STATIONS ARE NOT NWS OR FAA STATIONS...AND ARE NOT SUBJECT
    TO NWS AND FAA QUALITY CONTROL.

TXZ171-172-183>190-200200-
TEXAS HILL COUNTRY AND EDWARDS PLATEAU

CITY           SKY/WX    TMP DP  RH WIND       PRES   REMARKS
JUNCTION       MOCLDY    49  28  44 CALM      30.23R
*LLANO         CLEAR     46  34  61 CALM      30.27R
BURNET         CLEAR     50  32  50 CALM      30.26R
*HORSESHOE BAY CLEAR     43  32  65 CALM      30.25R
*KERRVILLE     MOCLDY    45  32  59 CALM      30.23F
*FREDERICKSBRG CLEAR     45  30  56 CALM      30.24R
*ROCKSPRINGS   NOT AVBL
*BOERNE STAGE  CLOUDY    43  32  65 CALM      30.25S
*CASTROVILLE   CLOUDY    54  27  35 CALM      30.25R
HONDO          MOCLDY    57  29  34 SE6       30.23S
*UVALDE        MOCLDY    53  34  48 CALM      30.23S
DEL RIO        PTCLDY    56  30  37 SE3       30.21S
LAUGHLIN AFB   CLOUDY    58  26  29 S3        30.21S
CARRIZO SPRGS  CLOUDY    55  41  58 CALM      30.22S
*EAGLE PASS    CLEAR     55  36  47 S5        30.22S
$$

TXZ173-191>194-202-209-217>225-228-200200-
CENTRAL AND SOUTH CENTRAL TEXAS

CITY           SKY/WX    TMP DP  RH WIND       PRES   REMARKS
GEORGETOWN     PTCLDY    49  31  49 CALM      30.26R
AUSTIN/BERGSTM MOCLDY    46  36  68 CALM      30.24R
AUSTIN/MABRY   PTCLDY    53  32  44 CALM      30.25R
*AUSTIN/EXEC   PTCLDY    55  28  35 CALM      30.25S
*LAGO VISTA    MOCLDY    52  30  43 CALM      30.25R
SAN MARCOS     CLOUDY    49  28  44 CALM      30.25R
NEW BRAUNFELS  CLOUDY    50  32  50 NE5       30.23R WCI  48
RANDOLPH AFB   CLOUDY    54  30  40 NE3       30.23S
PT SAN ANTONIO CLOUDY    57  29  34 E3        30.21S
SAN ANTONIO    CLOUDY    56  30  37 NE5       30.24R
STINSON FIELD  CLOUDY    59  28  30 E5        30.22R
*LA GRANGE     CLOUDY    52  37  57 CALM      30.22S
*GIDDINGS      CLOUDY    48  38  68 CALM      30.25R
*GONZALES      CLOUDY    55  32  42 N5        30.24R
$$

TXZ163>164-176>182-195>201-210>213-226-227-235-200200-
SOUTHEAST TEXAS

CITY           SKY/WX    TMP DP  RH WIND       PRES   REMARKS
COLLEGE STN    CLOUDY    55  34  45 N3        30.24R
*BRYAN         CLOUDY    49  37  61 CALM      30.25S
*CALDWELL      CLOUDY    51  37  57 CALM      30.25R
*CROCKETT        N/A    N/A N/A N/A MISG        N/A
*BRENHAM       CLOUDY    51  36  54 CALM      30.25R
HUNTSVILLE     PTCLDY    49  37  63 CALM      30.24R
CONROE         CLEAR     46  43  89 CALM      30.23S
HOUSTON BUSH   MOCLDY    52  37  56 CALM      30.23R
HOUSTON HOBBY  CLOUDY    57  34  41 N8        30.23R
*HOUSTON SW AP CLOUDY    49  42  77 CALM      30.24R
PEARLAND       CLOUDY    55  42  61 CALM      30.24R
HOUSTON HOOKS  CLOUDY    50  41  71 CALM      30.24R
ELLINGTON FLD  MOCLDY    59  34  38 N5        30.24
SUGAR LAND     CLOUDY    51  38  60 N5        30.23R
*HOUSTON EXEC  CLOUDY    52  37  58 CALM      30.25R
*CLEVELAND MUN CLOUDY    45  42  89 CALM      30.24R
*WHARTON       MOCLDY    51  37  59 CALM      30.24R
*COLUMBUS      FAIR      48  34  58 CALM      30.25R
*EAGLE LAKE    CLOUDY    51  36  57 CALM      30.23S
$$

TXZ214>216-236>238-200200-
THE UPPER TEXAS COAST

CITY           SKY/WX    TMP DP  RH WIND       PRES   REMARKS
*ORANGE        CLOUDY    50  38  62 CALM      30.24S
PORT ARTHUR    CLOUDY    50  36  58 N3        30.22R
GALVESTON      MOCLDY    62  38  40 N10       30.23R
ANGLETON       MOCLDY    53  40  61 CALM      30.23R
*BAY CITY      MOCLDY    55  35  47 N6        30.22S
PALACIOS       MOCLDY    55  36  48 NE7       30.22R
$$

TXZ229>234-239>247-200200-
TEXAS COASTAL BEND AND RIO GRANDE PLAINS

CITY           SKY/WX    TMP DP  RH WIND       PRES   REMARKS
VICTORIA       MOCLDY    53  39  59 N7        30.23R
*BEEVILLE      MOCLDY    57  43  59 CALM      30.23R
ROCKPORT       PTCLDY    56  36  47 N3        30.22S
*PORT ARANSAS  NOT AVBL
*PORT LAVACA   MOCLDY    58  34  40 CALM      30.22S
*INGLESIDE     NOT AVBL
CORPUS CHRISTI MOCLDY    58  34  40 NE7       30.23R
CORPUS NAS     CLEAR     63  36  36 NE8       30.22S
*ROBSTOWN      PTCLDY    60  31  33 NE5       30.23R
ALICE          PTCLDY    56  30  37 NE5       30.22R
KINGSVILLE NAS PTCLDY    55  38  52 SE5       30.23R
COTULLA        CLOUDY    59  27  29 SE3       30.22F
*FAITH RANCH   PTCLDY    55  46  71 CALM      30.22S
LAREDO         CLOUDY    60  36  40 E3        30.22F
$$

TXZ248>255-200200-
DEEP SOUTH TEXAS

CITY           SKY/WX    TMP DP  RH WIND       PRES   REMARKS
BROWNSVILLE    PTCLDY    62  50  64 NW7       30.22R
PORT ISABEL    PTCLDY    60  50  69 N7        30.21R
*SOUTH PADRE   NOT AVBL
HARLINGEN      CLEAR     57  45  64 N7        30.23R
*HEBBRONVILLE  CLEAR     58  29  32 CALM      30.24R
MCALLEN        CLEAR     63  41  44 NE10      30.24R
*WESLACO       CLEAR     58  42  54 NE6       30.24R
FALFURRIAS     PTCLDY    57  32  38 CALM      30.23R
EDINBURG       CLEAR     58  39  48 E5        30.24S
*ZAPATA        CLEAR     55  34  45 CALM      30.22R
$$

TXZ213>215-236>238-242>244-246-247-251-254-255-200200-
CMAN STATIONS

STATION/POSITION TIME  TEMP    WIND        PRES    WAVE
                       AIR SEA DIR/SP/G            HT/PER
                 (UTC) (F)     (DEG/KT/KT) (MB)    (FT/S)
SABINE PASS      0024   58 69   10/  9/ 11 1024.6
SEA RIM ST PARK  0000   56     350/  6/  6 1023.5
NORTH JETTY/GLS  0018      67   10/  8/ 10 1022.6
EAGLE POINT      0024   61 66   20/  6/ 10 1023.2
MORGANS POINT    0024   60 69  360/  8/ 10 1023.3
PORT O`CONNOR    0024   63 67   20/ 10/ 12 1022.6
PORT ARANSAS     0000   63 70   30/ 10/ 11 1023.2
MALAQUITE BEACH  0030   63 71  360/  9/ 12 1022.9
BAFFIN BAY       0030   62 68   20/  7/  8 1023.6
PORT ISABEL      0030   65 73   10/ 10/ 12 1022.6
$$



USA.gov is the U.S. government's official web portal to all federal, state and local government web resources and services.